Weather History for Ankeny, IA

Change the Weather History Date:

Friday, June 28, 2013

  Actual Average (KDSM) Record (KDSM)
Temperature  
Mean Temperature 78 °F 75 °F  
Max Temperature 86 °F 85 °F 102 °F (1934)
Min Temperature 69 °F 65 °F 52 °F (1911)
Degree Days  
Heating Degree Days 0 0  
Month to date heating degree days 14  
Since 1 June heating degree days 14  
Since 1 July heating degree days 6199  
Cooling Degree Days 12 10  
Month to date cooling degree days 199  
Year to date cooling degree days 275  
Since 1 June cooling degree days 199  
Growing Degree Days 28 (Base 50)    
Moisture  
Dew Point 57 °F    
Average Humidity 51    
Maximum Humidity 78    
Minimum Humidity 29    
Precipitation  
Precipitation 0.00 in 0.17 in 2.75 in (1882)
Month to date precipitation 4.62  
Year to date precipitation 17.80  
Snow  
Snow 0.00 in 0.00 in - ()
Month to date snowfall 0.0  
Since 1 June snowfall 0.0  
Since 1 July snowfall 35.3  
Snow Depth -    
Sea Level Pressure  
Sea Level Pressure 29.84 in    
Wind  
Wind Speed 13 mph (NW)    
Max Wind Speed 29 mph    
Max Gust Speed 41 mph    
Visibility 10 miles    
Events      
T = Trace of Precipitation, MM = Missing Value Source: NWS Daily Summary

Daily Weather History Graph

Daily Weather History Graph

Search for Another Location

Airport:

Trip Planner

Search our weather history database for the weather conditions in past years. The results will help you decide how hot, cold, wet, or windy it might be!

Date:

Astronomy

Jun. 28, 2013 Rise Set
Actual Time 5:42 AM CDT 8:52 PM CDT
Civil Twilight 5:08 AM CDT 9:26 PM CDT
Nautical Twilight 4:24 AM CDT 10:10 PM CDT
Astronomical Twilight 3:31 AM CDT 11:03 PM CDT
Moon No Moon Rise 11:56 AM CDT (6/28)
Length of Visible Light 16h 18m
Length of Day
15h 10m
Waning Gibbous, 66% of the Moon is Illuminated
Jun 28
Waning Gibbous
Jun 29
Last Quarter
Jul 8
New
Jul 15
First Quarter
Jul 22
Full

Hourly Weather History & Observations

Time (CDT) Temp. Heat Index Dew Point Humidity Pressure Visibility Wind Dir Wind Speed Gust Speed Precip Events Conditions
12:15 AM 73.4 °F - 62.6 °F 69% 29.89 in 10.0 mi WNW 8.1 mph - N/A   Clear
12:35 AM 73.4 °F - 62.6 °F 69% 29.89 in 10.0 mi West 9.2 mph - N/A   Clear
12:55 AM 73.4 °F - 62.6 °F 69% 29.88 in 10.0 mi WNW 9.2 mph - N/A   Clear
1:35 AM 71.6 °F - 62.6 °F 73% 29.87 in 10.0 mi WNW 10.4 mph - N/A   Clear
1:55 AM 71.6 °F - 62.6 °F 73% 29.87 in 10.0 mi West 10.4 mph - N/A   Clear
2:15 AM 71.6 °F - 62.6 °F 73% 29.87 in 10.0 mi West 10.4 mph - N/A   Clear
2:35 AM 71.6 °F - 62.6 °F 73% 29.87 in 10.0 mi West 10.4 mph - N/A   Clear
2:55 AM 71.6 °F - 62.6 °F 73% 29.87 in 10.0 mi West 9.2 mph - N/A   Clear
3:15 AM 71.6 °F - 64.4 °F 78% 29.87 in 10.0 mi WNW 8.1 mph - N/A   Mostly Cloudy
3:35 AM 71.6 °F - 64.4 °F 78% 29.86 in 10.0 mi WNW 9.2 mph - N/A   Mostly Cloudy
3:55 AM 71.6 °F - 64.4 °F 78% 29.86 in 10.0 mi WNW 8.1 mph - N/A   Mostly Cloudy
4:15 AM 71.6 °F - 64.4 °F 78% 29.85 in 10.0 mi WNW 8.1 mph - N/A   Scattered Clouds
4:35 AM 71.6 °F - 62.6 °F 73% 29.85 in 10.0 mi NW 11.5 mph - N/A   Clear
4:55 AM 71.6 °F - 62.6 °F 73% 29.85 in 10.0 mi NW 10.4 mph - N/A   Clear
5:15 AM 71.6 °F - 62.6 °F 73% 29.85 in 10.0 mi NW 11.5 mph - N/A   Clear
5:35 AM 71.6 °F - 60.8 °F 69% 29.86 in 10.0 mi NW 10.4 mph - N/A   Clear
5:55 AM 71.6 °F - 60.8 °F 69% 29.86 in 10.0 mi NW 10.4 mph 19.6 mph N/A   Clear
6:15 AM 69.8 °F - 59.0 °F 68% 29.87 in 10.0 mi NW 9.2 mph 19.6 mph N/A   Clear
6:35 AM 69.8 °F - 59.0 °F 68% 29.88 in 10.0 mi NW 9.2 mph - N/A   Clear
6:55 AM 69.8 °F - 59.0 °F 68% 29.88 in 10.0 mi NW 9.2 mph - N/A   Clear
7:55 AM 73.4 °F - 59.0 °F 61% 29.89 in 10.0 mi NW 9.2 mph 16.1 mph N/A   Clear
8:15 AM 75.2 °F - 59.0 °F 57% 29.89 in 10.0 mi NW 9.2 mph - N/A   Clear
8:35 AM 75.2 °F - 59.0 °F 57% 29.89 in 10.0 mi NW 11.5 mph - N/A   Clear
8:55 AM 77.0 °F - 60.8 °F 57% 29.89 in 10.0 mi West 9.2 mph - N/A   Clear
9:15 AM 77.0 °F - 60.8 °F 57% 29.90 in 10.0 mi WNW 10.4 mph - N/A   Clear
9:35 AM 78.8 °F - 60.8 °F 54% 29.89 in 10.0 mi WNW 13.8 mph - N/A   Clear
9:55 AM 78.8 °F - 57.2 °F 47% 29.89 in 10.0 mi NW 16.1 mph 24.2 mph N/A   Clear
10:15 AM 78.8 °F - 57.2 °F 47% 29.88 in 10.0 mi NW 16.1 mph 21.9 mph N/A   Clear
10:35 AM 80.6 °F 80.5 °F 55.4 °F 42% 29.88 in 10.0 mi NW 16.1 mph 25.3 mph N/A   Clear
10:55 AM 80.6 °F 80.8 °F 57.2 °F 45% 29.87 in 10.0 mi NW 15.0 mph 24.2 mph N/A   Clear
11:15 AM 80.6 °F 80.8 °F 57.2 °F 45% 29.87 in 10.0 mi NW 17.3 mph 28.8 mph N/A   Clear
11:35 AM 82.4 °F 81.7 °F 55.4 °F 39% 29.86 in 10.0 mi NW 17.3 mph 29.9 mph N/A   Clear
11:55 AM 82.4 °F 81.7 °F 55.4 °F 39% 29.86 in 10.0 mi NW 18.4 mph 28.8 mph N/A   Partly Cloudy
12:15 PM 82.4 °F 81.7 °F 55.4 °F 39% 29.85 in 10.0 mi NW 24.2 mph 31.1 mph N/A   Partly Cloudy
12:35 PM 84.2 °F 82.8 °F 53.6 °F 35% 29.85 in 10.0 mi NW 26.5 mph 34.5 mph N/A   Partly Cloudy
12:55 PM 84.2 °F 83.0 °F 55.4 °F 37% 29.85 in 10.0 mi WNW 23.0 mph 31.1 mph N/A   Partly Cloudy
1:15 PM 84.2 °F 82.8 °F 53.6 °F 35% 29.84 in 10.0 mi NW 23.0 mph 31.1 mph N/A   Partly Cloudy
1:35 PM 84.2 °F 82.8 °F 53.6 °F 35% 29.84 in 10.0 mi NW 19.6 mph 33.4 mph N/A   Scattered Clouds
1:55 PM 84.2 °F - 51.8 °F 33% 29.83 in 10.0 mi NW 25.3 mph 33.4 mph N/A   Scattered Clouds
2:15 PM 84.2 °F - 51.8 °F 33% 29.83 in 10.0 mi NW 21.9 mph 41.4 mph N/A   Scattered Clouds
2:35 PM 84.2 °F - 51.8 °F 33% 29.82 in 10.0 mi NNW 19.6 mph 34.5 mph N/A   Scattered Clouds
2:55 PM 86.0 °F 84.2 °F 53.6 °F 33% 29.81 in 10.0 mi NW 25.3 mph 33.4 mph N/A   Partly Cloudy
3:15 PM 86.0 °F - 50.0 °F 29% 29.81 in 10.0 mi NW 28.8 mph 36.8 mph N/A   Scattered Clouds
3:35 PM 84.2 °F - 51.8 °F 33% 29.81 in 10.0 mi NNW 23.0 mph 36.8 mph N/A   Scattered Clouds
3:55 PM 84.2 °F - 51.8 °F 33% 29.81 in 10.0 mi NNW 23.0 mph 35.7 mph N/A   Partly Cloudy
4:15 PM 84.2 °F - 51.8 °F 33% 29.81 in 10.0 mi NNW 19.6 mph 31.1 mph N/A   Clear
4:35 PM 86.0 °F - 51.8 °F 31% 29.80 in 10.0 mi NNW 20.7 mph 39.1 mph N/A   Partly Cloudy
4:55 PM 86.0 °F - 51.8 °F 31% 29.80 in 10.0 mi NNW 21.9 mph 32.2 mph N/A   Clear
5:15 PM 84.2 °F - 51.8 °F 33% 29.80 in 10.0 mi NNW 18.4 mph 29.9 mph N/A   Clear
5:35 PM 84.2 °F - 51.8 °F 33% 29.80 in 10.0 mi NW 19.6 mph 33.4 mph N/A   Clear
5:55 PM 84.2 °F 82.8 °F 53.6 °F 35% 29.79 in 10.0 mi NNW 23.0 mph 33.4 mph N/A   Clear
6:15 PM 84.2 °F 82.8 °F 53.6 °F 35% 29.79 in 10.0 mi NW 18.4 mph 29.9 mph N/A   Clear
6:35 PM 84.2 °F 82.8 °F 53.6 °F 35% 29.78 in 10.0 mi NNW 21.9 mph 35.7 mph N/A   Clear
6:55 PM 82.4 °F 81.4 °F 53.6 °F 37% 29.78 in 10.0 mi NNW 19.6 mph 31.1 mph N/A   Clear
7:15 PM 82.4 °F 81.7 °F 55.4 °F 39% 29.79 in 10.0 mi NNW 16.1 mph 26.5 mph N/A   Clear
7:35 PM 80.6 °F 80.5 °F 55.4 °F 42% 29.78 in 10.0 mi NNW 20.7 mph 31.1 mph N/A   Clear
7:55 PM 80.6 °F 80.5 °F 55.4 °F 42% 29.79 in 10.0 mi NNW 15.0 mph 27.6 mph N/A   Clear
8:15 PM 80.6 °F 80.5 °F 55.4 °F 42% 29.79 in 10.0 mi NNW 18.4 mph - N/A   Clear
8:35 PM 78.8 °F - 55.4 °F 44% 29.79 in 10.0 mi NNW 13.8 mph 20.7 mph N/A   Clear
8:55 PM 78.8 °F - 53.6 °F 42% 29.79 in 10.0 mi NNW 13.8 mph 23.0 mph N/A   Clear
9:15 PM 78.8 °F - 53.6 °F 42% 29.79 in 10.0 mi NNW 15.0 mph 21.9 mph N/A   Clear
9:35 PM 77.0 °F - 53.6 °F 44% 29.80 in 10.0 mi NNW 11.5 mph - N/A   Clear
9:55 PM 77.0 °F - 53.6 °F 44% 29.80 in 10.0 mi NNW 12.7 mph - N/A   Clear
10:15 PM 75.2 °F - 53.6 °F 47% 29.81 in 10.0 mi NNW 9.2 mph 16.1 mph N/A   Clear
10:35 PM 75.2 °F - 55.4 °F 50% 29.81 in 10.0 mi NW 11.5 mph - N/A   Clear
10:55 PM 75.2 °F - 55.4 °F 50% 29.81 in 10.0 mi NW 11.5 mph - N/A   Clear
11:15 PM 73.4 °F - 55.4 °F 53% 29.80 in 10.0 mi NW 9.2 mph 16.1 mph N/A   Clear
11:35 PM 73.4 °F - 55.4 °F 53% 29.79 in 10.0 mi NW 11.5 mph 17.3 mph N/A   Clear
11:55 PM 73.4 °F - 55.4 °F 53% 29.79 in 10.0 mi WNW 8.1 mph - N/A   Clear